STARLINK-1633 (46171 NORAD) Tracking and Keplerian Element Data

This shows tracking and keplerian element data for the satellite.

Feedback or suggestion? Click here.




ElementValue
Catalog46171
NameSTARLINK-1633
Epoch Orbit179
Epoch Day332.91668981
Epoch Year2020
RAAN310.7167
Inclination53.001
Eccentricity0.000162
Argument of Perigee70.4024
Mean Anonmoly24.0421
Mean Motion15.05576633
Decay Rate0.00028086
L11 46171U 20057BG 20332.91668981 .00028086 00000-0 19393-2 0 9992
L22 46171 53.0010 310.7167 0001620 70.4024 24.0421 15.05576633 1792

Live tracking and technical data element details for STARLINK-1633 (NORAD 46171). STARLINK-1633 can be tracked NOW for your location showing map with azimuth and elevation plus other details from your city location.

Track the satellite on the map from your city or location and see movement details for azimuth, elevation, latitude, longitude, range, height, and movement on the map or in text.







IsCatalogInMostPopularTable: catalog: 46171, numindb: 19
Update: records affected: 1



GetName: 46171 STARLINK-1633

Hit Count: updated at: Sun, 29 Nov 2020 10:26:30 GMT